Location: Praha
(50.0830°N, 14.4670°E)
Time: 19:08:30
(UTC+02:00)

ISS - Pass Details

Date: 05 September 2024
Orbit: 414 x 424 km, 51.6° (Epoch: 16 September)

Event Time Altitude Azimuth Distance (km) Brightness Sun altitude
Exits shadow 04:36:23 42° 264° (W) 623 -3.4 -16.7°
Maximum altitude 04:37:18 62° 204° (SSW) 485 -3.8 -16.5°
Drops below altitude 10° 04:40:40 10° 123° (ESE) 1,518 -0.6 -16.1°
Sets 04:42:47 0° 120° (ESE) 2,382 0.5 -15.8°
